SHT3U EGCC-EGLL

Flight info

Callsign SHT3U
Flight time 0h 31m
Altitude 19000
Route LISTO2S LISTO L612 HON HON2H
Aircraft A320/M-SDE3FGIJ1KRWXY/SB1

Departure

Time 2026-05-05 23:12
Airport Manchester Airport (EGCC)

Arrival

Time 2026-05-05 23:43
Airport London Heathrow Airport (EGLL)
Time Latitude Longitude Altitude Speed Heading
2026-05-05 22:55 53.36944 -2.28691 255 ft 0 kts 134°
2026-05-05 23:01 53.36944 -2.28692 255 ft 2 kts 134°
2026-05-05 23:01 53.36963 -2.28719 255 ft 4 kts 154°
2026-05-05 23:02 53.36987 -2.28729 255 ft 4 kts 195°
2026-05-05 23:02 53.37001 -2.28717 255 ft 1 kts 224°
2026-05-05 23:02 53.37003 -2.28714 255 ft 0 kts 224°
2026-05-05 23:04 53.37001 -2.28717 255 ft 1 kts 224°
2026-05-05 23:04 53.36987 -2.28739 255 ft 4 kts 224°
2026-05-05 23:05 53.36962 -2.28781 255 ft 6 kts 224°
2026-05-05 23:05 53.36925 -2.28841 255 ft 9 kts 224°
2026-05-05 23:05 53.36877 -2.28920 255 ft 11 kts 225°
2026-05-05 23:05 53.36816 -2.29011 255 ft 13 kts 209°
2026-05-05 23:06 53.36724 -2.29001 255 ft 15 kts 145°
2026-05-05 23:06 53.36642 -2.28871 255 ft 17 kts 136°
2026-05-05 23:06 53.36557 -2.28706 255 ft 20 kts 127°
2026-05-05 23:06 53.36461 -2.28525 255 ft 22 kts 135°
2026-05-05 23:07 53.36356 -2.28348 255 ft 21 kts 135°
2026-05-05 23:07 53.36256 -2.28179 255 ft 21 kts 134°
2026-05-05 23:07 53.36150 -2.27995 255 ft 23 kts 134°
2026-05-05 23:07 53.36052 -2.27854 255 ft 17 kts 160°
2026-05-05 23:08 53.35927 -2.27851 255 ft 19 kts 183°
2026-05-05 23:08 53.35795 -2.27869 255 ft 19 kts 185°
2026-05-05 23:08 53.35648 -2.27895 250 ft 24 kts 186°
2026-05-05 23:08 53.35484 -2.27928 246 ft 22 kts 191°
2026-05-05 23:09 53.35352 -2.28092 240 ft 26 kts 223°
2026-05-05 23:09 53.35234 -2.28296 234 ft 18 kts 231°
2026-05-05 23:09 53.35144 -2.28480 229 ft 22 kts 231°
2026-05-05 23:09 53.35048 -2.28678 223 ft 17 kts 230°
2026-05-05 23:10 53.34967 -2.28736 220 ft 9 kts 162°
2026-05-05 23:10 53.34944 -2.28715 223 ft 1 kts 148°
2026-05-05 23:10 53.34932 -2.28702 220 ft 4 kts 146°
2026-05-05 23:10 53.34898 -2.28654 220 ft 9 kts 139°
2026-05-05 23:11 53.34857 -2.28586 221 ft 7 kts 115°
2026-05-05 23:11 53.34863 -2.28553 222 ft 0 kts 54°
2026-05-05 23:11 53.34864 -2.28551 222 ft 4 kts 52°
2026-05-05 23:11 53.35062 -2.28137 230 ft 89 kts 51°
2026-05-05 23:12 53.35593 -2.27038 272 ft 151 kts 53°
2026-05-05 23:12 53.36280 -2.25663 941 ft 160 kts 51°
2026-05-05 23:12 53.36999 -2.24246 1865 ft 155 kts 51°
2026-05-05 23:12 53.37641 -2.22894 2576 ft 150 kts 62°
2026-05-05 23:13 53.37738 -2.21067 2862 ft 174 kts 102°
2026-05-05 23:13 53.37085 -2.19206 3091 ft 203 kts 134°
2026-05-05 23:13 53.35828 -2.17821 3355 ft 229 kts 147°
2026-05-05 23:13 53.34262 -2.16831 3696 ft 256 kts 173°
2026-05-05 23:14 53.32418 -2.16981 4280 ft 273 kts 186°
2026-05-05 23:14 53.30523 -2.17312 5192 ft 277 kts 187°
2026-05-05 23:14 53.28595 -2.17638 6095 ft 280 kts 187°
2026-05-05 23:14 53.26641 -2.17958 6956 ft 283 kts 187°
2026-05-05 23:15 53.24669 -2.18273 7804 ft 287 kts 187°
2026-05-05 23:15 53.22670 -2.18590 8657 ft 289 kts 187°
2026-05-05 23:15 53.20655 -2.18909 9501 ft 293 kts 187°
2026-05-05 23:15 53.18610 -2.19231 10255 ft 298 kts 187°
2026-05-05 23:16 53.16461 -2.19527 10508 ft 322 kts 183°
2026-05-05 23:16 53.14150 -2.19252 10723 ft 344 kts 171°
2026-05-05 23:16 53.11812 -2.18149 11261 ft 354 kts 159°
2026-05-05 23:16 53.09536 -2.16569 11932 ft 357 kts 158°
2026-05-05 23:17 53.07224 -2.14967 12617 ft 360 kts 159°
2026-05-05 23:17 53.04901 -2.13364 13309 ft 363 kts 159°
2026-05-05 23:17 53.02555 -2.11751 13985 ft 367 kts 159°
2026-05-05 23:17 53.00184 -2.10123 14600 ft 369 kts 159°
2026-05-05 23:18 52.97802 -2.08487 15209 ft 372 kts 159°
2026-05-05 23:18 52.95406 -2.06841 15823 ft 374 kts 159°
2026-05-05 23:18 52.92995 -2.05185 16410 ft 376 kts 159°
2026-05-05 23:18 52.90570 -2.03520 16998 ft 379 kts 159°
2026-05-05 23:19 52.88122 -2.01839 17592 ft 382 kts 159°
2026-05-05 23:19 52.85700 -2.00181 18196 ft 384 kts 160°
2026-05-05 23:19 52.83228 -1.98494 18736 ft 387 kts 160°
2026-05-05 23:19 52.80689 -1.96760 18986 ft 388 kts 160°
2026-05-05 23:20 52.78177 -1.95044 19039 ft 397 kts 160°
2026-05-05 23:20 52.75605 -1.93292 19049 ft 400 kts 160°
2026-05-05 23:20 52.73024 -1.91533 19048 ft 402 kts 160°
2026-05-05 23:20 52.70466 -1.89792 19047 ft 403 kts 160°
2026-05-05 23:21 52.67878 -1.88034 19036 ft 402 kts 160°
2026-05-05 23:21 52.65286 -1.86278 19042 ft 402 kts 160°
2026-05-05 23:21 52.62692 -1.84527 19046 ft 402 kts 160°
2026-05-05 23:21 52.60097 -1.82780 19055 ft 403 kts 160°
2026-05-05 23:22 52.57507 -1.81037 19057 ft 403 kts 160°
2026-05-05 23:22 52.54914 -1.79289 19059 ft 403 kts 160°
2026-05-05 23:22 52.52318 -1.77543 19059 ft 403 kts 160°
2026-05-05 23:22 52.49722 -1.75798 19055 ft 402 kts 160°
2026-05-05 23:23 52.47136 -1.74060 19060 ft 402 kts 160°
2026-05-05 23:23 52.44546 -1.72318 19053 ft 402 kts 160°
2026-05-05 23:23 52.41951 -1.70578 19058 ft 402 kts 160°
2026-05-05 23:23 52.39361 -1.68846 19053 ft 402 kts 160°
2026-05-05 23:24 52.36798 -1.67012 19058 ft 403 kts 154°
2026-05-05 23:24 52.34425 -1.64554 19055 ft 406 kts 144°
2026-05-05 23:24 52.32274 -1.61566 19053 ft 407 kts 141°
2026-05-05 23:24 52.30133 -1.58532 19029 ft 407 kts 141°
2026-05-05 23:25 52.27989 -1.55513 19031 ft 407 kts 141°
2026-05-05 23:25 52.25872 -1.52543 19023 ft 406 kts 141°
2026-05-05 23:25 52.23728 -1.49542 19032 ft 406 kts 141°
2026-05-05 23:25 52.21585 -1.46543 19028 ft 406 kts 141°
2026-05-05 23:26 52.19442 -1.43536 19029 ft 406 kts 141°
2026-05-05 23:26 52.17299 -1.40531 19029 ft 406 kts 141°
2026-05-05 23:26 52.15156 -1.37533 19028 ft 406 kts 141°
2026-05-05 23:26 52.12980 -1.34500 19028 ft 406 kts 141°
2026-05-05 23:27 52.10860 -1.31552 19028 ft 406 kts 141°
2026-05-05 23:27 52.08714 -1.28569 19029 ft 406 kts 141°
2026-05-05 23:27 52.06564 -1.25586 19030 ft 406 kts 141°
2026-05-05 23:27 52.04413 -1.22602 19028 ft 407 kts 141°
2026-05-05 23:28 52.02264 -1.19620 19020 ft 406 kts 141°
2026-05-05 23:28 52.00117 -1.16644 19024 ft 406 kts 141°
2026-05-05 23:28 51.97964 -1.13668 19021 ft 406 kts 141°
2026-05-05 23:28 51.95818 -1.10713 19022 ft 406 kts 141°
2026-05-05 23:29 51.93662 -1.07750 19023 ft 406 kts 141°
2026-05-05 23:29 51.91511 -1.04792 19022 ft 406 kts 141°
2026-05-05 23:29 51.89355 -1.01831 19016 ft 406 kts 141°
2026-05-05 23:29 51.87200 -0.98875 19015 ft 406 kts 141°
2026-05-05 23:30 51.85217 -0.95625 19006 ft 408 kts 126°
2026-05-05 23:30 51.83835 -0.91612 18993 ft 409 kts 118°
2026-05-05 23:30 51.82598 -0.87613 18878 ft 387 kts 117°
2026-05-05 23:30 51.81459 -0.83837 18754 ft 361 kts 117°
2026-05-05 23:31 51.80410 -0.80340 18496 ft 342 kts 117°
2026-05-05 23:31 51.79379 -0.76930 17918 ft 335 kts 117°
2026-05-05 23:31 51.78353 -0.73569 17259 ft 332 kts 117°
2026-05-05 23:31 51.77329 -0.70233 16558 ft 330 kts 117°
2026-05-05 23:32 51.76313 -0.66939 15937 ft 327 kts 117°
2026-05-05 23:32 51.75300 -0.63666 15347 ft 323 kts 116°
2026-05-05 23:32 51.74305 -0.60452 14724 ft 321 kts 116°
2026-05-05 23:32 51.73310 -0.57232 14138 ft 319 kts 116°
2026-05-05 23:33 51.72321 -0.54032 13518 ft 318 kts 116°
2026-05-05 23:33 51.71179 -0.51019 12896 ft 313 kts 133°
2026-05-05 23:33 51.69449 -0.49012 12495 ft 300 kts 161°
2026-05-05 23:33 51.67481 -0.48473 12312 ft 278 kts 187°
2026-05-05 23:34 51.65637 -0.49113 11931 ft 269 kts 199°
2026-05-05 23:34 51.63937 -0.50250 11445 ft 261 kts 220°
2026-05-05 23:34 51.62726 -0.52350 10939 ft 255 kts 239°
2026-05-05 23:34 51.61760 -0.54705 10610 ft 256 kts 241°
2026-05-05 23:35 51.60837 -0.57163 10334 ft 255 kts 246°
2026-05-05 23:35 51.60119 -0.59754 9993 ft 255 kts 250°
2026-05-05 23:35 51.59451 -0.62379 9506 ft 252 kts 252°
2026-05-05 23:35 51.58789 -0.64974 9029 ft 250 kts 251°
2026-05-05 23:36 51.58134 -0.67554 8518 ft 248 kts 250°
2026-05-05 23:36 51.57498 -0.70135 7990 ft 248 kts 251°
2026-05-05 23:36 51.56867 -0.72710 7497 ft 247 kts 251°
2026-05-05 23:36 51.56411 -0.75355 6985 ft 245 kts 259°
2026-05-05 23:37 51.56068 -0.78037 6491 ft 245 kts 261°
2026-05-05 23:37 51.55742 -0.80718 5969 ft 244 kts 261°
2026-05-05 23:37 51.55314 -0.83340 5447 ft 245 kts 245°
2026-05-05 23:37 51.54207 -0.85395 4939 ft 246 kts 212°
2026-05-05 23:38 51.52601 -0.86241 4412 ft 244 kts 179°
2026-05-05 23:38 51.50967 -0.85775 4002 ft 237 kts 156°
2026-05-05 23:38 51.49546 -0.84505 3640 ft 231 kts 137°
2026-05-05 23:38 51.48462 -0.82626 3286 ft 229 kts 120°
2026-05-05 23:39 51.47800 -0.80337 3023 ft 223 kts 102°
2026-05-05 23:39 51.47591 -0.77956 3002 ft 218 kts 88°
2026-05-05 23:39 51.47606 -0.75515 3002 ft 217 kts 87°
2026-05-05 23:39 51.47621 -0.73174 3001 ft 203 kts 87°
2026-05-05 23:40 51.47634 -0.70968 2860 ft 195 kts 87°
2026-05-05 23:40 51.47647 -0.68805 2617 ft 193 kts 87°
2026-05-05 23:40 51.47660 -0.66653 2385 ft 192 kts 87°
2026-05-05 23:40 51.47672 -0.64536 2117 ft 186 kts 86°
2026-05-05 23:41 51.47682 -0.62526 1868 ft 175 kts 86°
2026-05-05 23:41 51.47691 -0.60622 1635 ft 165 kts 85°
2026-05-05 23:41 51.47700 -0.58843 1427 ft 156 kts 85°
2026-05-05 23:41 51.47709 -0.57111 1206 ft 155 kts 85°
2026-05-05 23:42 51.47718 -0.55386 984 ft 152 kts 86°
2026-05-05 23:42 51.47725 -0.53754 765 ft 141 kts 86°
2026-05-05 23:42 51.47727 -0.52196 571 ft 140 kts 89°
2026-05-05 23:42 51.47736 -0.50663 409 ft 137 kts 86°
2026-05-05 23:43 51.47745 -0.49119 200 ft 139 kts 85°
2026-05-05 23:43 51.47755 -0.47612 89 ft 126 kts 85°
2026-05-05 23:43 51.47757 -0.46676 90 ft 26 kts 90°
2026-05-05 23:43 51.47731 -0.46634 92 ft 7 kts 220°
2026-05-05 23:44 51.47714 -0.46685 89 ft 9 kts 241°
2026-05-05 23:44 51.47667 -0.46824 88 ft 13 kts 240°
2026-05-05 23:44 51.47617 -0.46880 87 ft 13 kts 207°
2026-05-05 23:44 51.47585 -0.47012 86 ft 14 kts 267°
2026-05-05 23:45 51.47583 -0.47237 86 ft 17 kts 269°
2026-05-05 23:45 51.47581 -0.47443 90 ft 20 kts 270°
2026-05-05 23:45 51.47581 -0.47599 90 ft 21 kts 270°
2026-05-05 23:45 51.47581 -0.47848 90 ft 24 kts 270°
2026-05-05 23:46 51.47581 -0.48124 87 ft 25 kts 270°
2026-05-05 23:46 51.47579 -0.48406 90 ft 22 kts 269°
2026-05-05 23:46 51.47578 -0.48657 89 ft 24 kts 270°
2026-05-05 23:46 51.47577 -0.48866 86 ft 13 kts 270°
2026-05-05 23:47 51.47528 -0.48952 88 ft 13 kts 182°
2026-05-05 23:47 51.47456 -0.48954 88 ft 8 kts 180°
2026-05-05 23:47 51.47426 -0.48953 86 ft 2 kts 179°
2026-05-05 23:47 51.47419 -0.48953 88 ft 1 kts 179°
2026-05-05 23:48 51.47417 -0.48953 88 ft 0 kts 179°